Flag for Saint Lucia Weather past 2 weeks in Castries, Saint Lucia

Now
81 °F

Scattered clouds.


Feels Like: 83 °F
Forecast: N/A
Wind: 12 mph from East

Location: Vigie

Current Time: Feb 28, 2015 at 5:12:11 PM

Latest Report: Feb 28, 2015 at 4:00 PM


Visibility: N/A

Pressure: 30.01 "Hg

Humidity: 62%

Dew point: 66 °F

Location of CastriesLocation

Historic Weather in Castries — Graph

°F

Castries temperature yesterday

Maximum temperature yesterday: 84 °F (at 12:00 PM)
Minimum temperature yesterday: 79 °F (at 6:00 AM)
Average temperature yesterday: 81 °F

Past Weeks' High & Low Weather Summary

 TemperatureHumidityPressure
High86 °F (Feb 15, 12:00 PM)100% (Feb 18, 6:00 PM)32.52 "Hg (Feb 18, 6:00 PM)
Low73 °F (Feb 24, 6:30 AM)49% (Feb 28, 1:00 PM)29.92 "Hg (Feb 19, 4:00 PM)
Average81 °F70%30.01 "Hg
* Reported Feb 13 4:00 PM — Feb 28 4:00 PM, Castries, Weather by CustomWeather, © 2015

Note: Actual official high and low records may vary slightly from our data, if they occured in-between our weather recording intervals... More about our weather records

Advertising

Castries weather history for previous 24 hours

 ConditionsComfort  
Time TempWeatherWind HumidityBarometerVisibility
4:00 PM
Sat, Feb 28
81 °FScattered clouds.12 mph62%30.01 "HgN/A
3:00 PM84 °FPassing clouds.15 mph100%30.01 "HgN/A
2:00 PM84 °FPassing clouds.18 mph55%30.01 "HgN/A
1:00 PM86 °FPassing clouds.18 mph49%30.01 "HgN/A
12:00 PM84 °FPassing clouds.14 mph51%30.04 "HgN/A
11:00 AM84 °FPassing clouds.20 mph51%30.07 "HgN/A
10:00 AM82 °FPassing clouds.18 mph62%30.07 "HgN/A
9:00 AM79 °FScattered clouds.12 mph70%30.07 "HgN/A
8:00 AM77 °FScattered clouds.12 mph74%30.07 "HgN/A
7:00 AM73 °FSprinkles. Partly sunny.14 mph89%30.04 "HgN/A
6:20 AM77 °FPassing clouds.9 mph65%30.01 "HgN/A
10:00 PM
Fri, Feb 27
79 °FThunderstorms. Overcast.6 mph65%30.04 "HgN/A
9:00 PM79 °FPassing clouds.9 mph70%30.04 "HgN/A
8:00 PM79 °FPassing clouds.12 mph65%30.01 "HgN/A
7:00 PM79 °FPassing clouds.12 mph65%30.01 "HgN/A
6:00 PM81 °FPassing clouds.12 mph66%29.98 "HgN/A
5:00 PM82 °FPassing clouds.14 mph62%29.98 "HgN/A
Weather by CustomWeather, © 2015

See weather overviewHow to use our weather pages